Location: Newark
(58.9986°N, 38.5006°E)
Time: 13:57:19
(UTC+00:00)

Envisat - Visible Passes

Search period start: 28 February 2021 00:00
Search period end: 10 March 2021 00:00
Orbit: 764 x 766 km, 98.1° (Epoch: 27 February)

Date Brightness Start Highest point End Pass type
(mag) Time Alt. Az. Time Alt. Az. Time Alt. Az.
28 Feb 5.9 01:49:34 10° NE 01:53:00 18° E 01:56:25 10° SE visible
28 Feb 3.2 03:27:46 10° NNE 03:32:53 78° ESE 03:37:59 10° SSW visible
01 Mar 4.3 02:51:01 10° NNE 02:55:55 45° E 03:00:47 10° S visible
01 Mar 6.3 15:57:25 10° WSW 16:00:01 14° W 16:02:37 10° NW visible
02 Mar 5.3 02:14:30 10° NNE 02:18:45 26° E 02:22:59 10° SSE visible
03 Mar 6.0 01:38:30 10° NE 01:41:24 15° E 01:44:17 10° ESE visible
03 Mar 3.5 03:16:20 10° NNE 03:21:26 66° ESE 03:26:30 10° S visible
04 Mar 4.6 02:39:39 10° NNE 02:44:25 38° E 02:49:08 10° SSE visible
04 Mar 6.2 15:45:13 10° WSW 15:48:24 16° W 15:51:36 10° NW visible
05 Mar 5.6 02:03:14 10° NE 02:07:11 22° E 02:11:07 10° SE visible
06 Mar 6.2 01:27:36 10° NE 01:29:46 13° E 01:31:56 10° ESE visible
06 Mar 3.8 03:04:56 10° NNE 03:09:58 56° E 03:14:58 10° S visible
06 Mar 6.7 16:13:01 10° W 16:14:16 11° WNW 16:15:31 10° WNW visible
07 Mar 5.0 02:28:18 10° NNE 02:32:53 32° E 02:37:25 10° SSE visible
08 Mar 5.9 01:52:01 10° NE 01:55:36 19° E 01:59:09 10° SE visible
09 Mar 6.4 01:17:16 10° ENE 01:18:07 10° ENE 01:18:58 10° E visible
09 Mar 4.2 02:53:32 10° NNE 02:58:29 47° E 03:03:22 10° S visible
09 Mar 6.5 16:00:17 10° WSW 16:02:37 13° W 16:04:58 10° NW visible
